Meteo pe oră la Dabrowica

Astăzi, 11 Aprilie, Duminică

Timp Temperatura Precipitaţii Vânt Presiune Umiditate
00:00 +8°C° 0 mm 1 m/s 752 mmHg 88%
01:00 +7°C° 0 mm 2 m/s 752 mmHg 88%
02:00 +7°C° 0 mm 2 m/s 752 mmHg 89%
03:00 +7°C° 0 mm 3 m/s 751 mmHg 89%
04:00 +7°C° 0 mm 3 m/s 751 mmHg 90%
05:00 +8°C° 0 mm 3 m/s 751 mmHg 86%
06:00 +9°C° 0 mm 3 m/s 751 mmHg 82%
07:00 +8°C° 0 mm 4 m/s 751 mmHg 77%
08:00 +11°C° 0 mm 4 m/s 751 mmHg 69%
09:00 +13°C° 0 mm 5 m/s 751 mmHg 61%
10:00 +15°C° 0 mm 5 m/s 751 mmHg 52%
11:00 +16°C° 0 mm 7 m/s 750 mmHg 50%
12:00 +16°C° 0 mm 8 m/s 750 mmHg 48%
13:00 +17°C° 0 mm 9 m/s 750 mmHg 47%
14:00 +16°C° 0 mm 8 m/s 750 mmHg 49%
15:00 +15°C° 0 mm 8 m/s 750 mmHg 51%
16:00 +15°C° 0 mm 7 m/s 750 mmHg 54%
17:00 +14°C° 0 mm 7 m/s 750 mmHg 55%
18:00 +13°C° 0 mm 6 m/s 750 mmHg 57%
19:00 +11°C° 0 mm 6 m/s 750 mmHg 59%
20:00 +11°C° 0 mm 6 m/s 750 mmHg 62%
21:00 +10°C° 0 mm 6 m/s 750 mmHg 65%
22:00 +10°C° 0 mm 5 m/s 750 mmHg 68%
23:00 +10°C° 0 mm 5 m/s 750 mmHg 72%

Mâine, 12 Aprilie, Luni

Timp Temperatura Precipitaţii Vânt Presiune Umiditate
00:00 +9°C° 0 mm 5 m/s 750 mmHg 76%
01:00 +10°C° 0 mm 4 m/s 750 mmHg 80%
02:00 +8°C° 0 mm 4 m/s 750 mmHg 82%
03:00 +8°C° 0 mm 4 m/s 750 mmHg 84%
04:00 +8°C° 0 mm 3 m/s 750 mmHg 86%
05:00 +9°C° 0 mm 3 m/s 750 mmHg 83%
06:00 +10°C° 0 mm 3 m/s 750 mmHg 80%
07:00 +10°C° 0 mm 3 m/s 750 mmHg 77%
08:00 +11°C° 0 mm 3 m/s 750 mmHg 73%
09:00 +12°C° 0 mm 3 m/s 750 mmHg 69%
10:00 +13°C° 0 mm 4 m/s 750 mmHg 65%
11:00 +13°C° 0 mm 4 m/s 750 mmHg 64%
12:00 +14°C° 0 mm 4 m/s 751 mmHg 64%
13:00 +14°C° 0 mm 4 m/s 751 mmHg 64%
14:00 +12°C° 0 mm 5 m/s 751 mmHg 70%
15:00 +9°C° 0 mm 6 m/s 752 mmHg 76%
16:00 +6°C° 0 mm 7 m/s 752 mmHg 81%
17:00 +5°C° 0.1 mm 7 m/s 753 mmHg 82%
18:00 +4°C° 0.1 mm 7 m/s 753 mmHg 82%
19:00 +3°C° 0.1 mm 7 m/s 754 mmHg 83%
20:00 +2°C° 0.2 mm 7 m/s 754 mmHg 86%
21:00 +1°C° 0.2 mm 6 m/s 755 mmHg 90%
22:00 -1°C° 0.2 mm 6 m/s 755 mmHg 93%
23:00 -1°C° 0.1 mm 6 m/s 755 mmHg 92%

Poimâine, 13 Aprilie, Marţi

Timp Temperatura Precipitaţii Vânt Presiune Umiditate
00:00 -1°C° 0.1 mm 6 m/s 755 mmHg 91%
01:00 0°C° 0.1 mm 5 m/s 756 mmHg 90%
02:00 0°C° 0 mm 5 m/s 756 mmHg 88%
03:00 +1°C° 0 mm 5 m/s 756 mmHg 86%
04:00 +1°C° 0 mm 4 m/s 756 mmHg 83%
05:00 +1°C° 0.1 mm 4 m/s 756 mmHg 82%
06:00 +1°C° 0.1 mm 4 m/s 756 mmHg 81%
07:00 +1°C° 0.1 mm 4 m/s 756 mmHg 80%
08:00 +1°C° 0.2 mm 4 m/s 757 mmHg 77%
09:00 +1°C° 0.2 mm 4 m/s 757 mmHg 74%
10:00 +3°C° 0.2 mm 4 m/s 757 mmHg 71%
11:00 +3°C° 0 mm 5 m/s 757 mmHg 64%
12:00 +5°C° 0 mm 5 m/s 757 mmHg 58%
13:00 +5°C° 0 mm 5 m/s 757 mmHg 51%
14:00 +6°C° 0 mm 5 m/s 757 mmHg 50%
15:00 +6°C° 0 mm 5 m/s 757 mmHg 49%
16:00 +6°C° 0 mm 5 m/s 756 mmHg 48%
17:00 +5°C° 0 mm 4 m/s 756 mmHg 52%
18:00 +4°C° 0 mm 3 m/s 756 mmHg 55%
19:00 +5°C° 0 mm 2 m/s 756 mmHg 59%
20:00 +4°C° 0 mm 2 m/s 756 mmHg 60%
21:00 +4°C° 0 mm 2 m/s 756 mmHg 61%
22:00 +4°C° 0 mm 2 m/s 756 mmHg 62%
23:00 +3°C° 0 mm 3 m/s 756 mmHg 63%

14 Aprilie, Miercuri

Timp Temperatura Precipitaţii Vânt Presiune Umiditate
00:00 +2°C° 0 mm 3 m/s 756 mmHg 64%
01:00 +2°C° 0 mm 3 m/s 756 mmHg 64%
02:00 +1°C° 0 mm 4 m/s 756 mmHg 68%
03:00 +1°C° 0 mm 4 m/s 756 mmHg 72%
04:00 0°C° 0 mm 5 m/s 756 mmHg 76%
05:00 0°C° 0 mm 5 m/s 756 mmHg 77%
06:00 +1°C° 0 mm 5 m/s 756 mmHg 77%
07:00 +1°C° 0 mm 5 m/s 756 mmHg 77%
08:00 +1°C° 0 mm 6 m/s 756 mmHg 73%
09:00 +2°C° 0 mm 7 m/s 756 mmHg 69%
10:00 +3°C° 0 mm 7 m/s 756 mmHg 64%
11:00 +2°C° 0 mm 8 m/s 756 mmHg 62%
12:00 +4°C° 0 mm 8 m/s 755 mmHg 59%
13:00 +4°C° 0 mm 8 m/s 755 mmHg 56%
14:00 +2°C° 0.4 mm 8 m/s 755 mmHg 66%
15:00 +1°C° 0.4 mm 8 m/s 755 mmHg 76%
16:00 0°C° 0.4 mm 7 m/s 755 mmHg 87%
17:00 0°C° 0.8 mm 8 m/s 755 mmHg 89%
18:00 -1°C° 0.8 mm 8 m/s 754 mmHg 92%
19:00 -1°C° 0.8 mm 8 m/s 754 mmHg 95%
20:00 -1°C° 0.8 mm 8 m/s 754 mmHg 95%
21:00 -2°C° 0.8 mm 8 m/s 754 mmHg 96%
22:00 -2°C° 0.8 mm 8 m/s 754 mmHg 96%
23:00 -2°C° 1.2 mm 8 m/s 754 mmHg 97%

15 Aprilie, Joi

Timp Temperatura Precipitaţii Vânt Presiune Umiditate
00:00 -2°C° 1.2 mm 8 m/s 753 mmHg 97%
01:00 -4°C° 1.2 mm 8 m/s 753 mmHg 98%
02:00 -4°C° 1.7 mm 8 m/s 753 mmHg 98%
03:00 -4°C° 1.7 mm 8 m/s 752 mmHg 98%
04:00 -3°C° 1.7 mm 7 m/s 752 mmHg 98%
05:00 -3°C° 1.2 mm 7 m/s 752 mmHg 99%
06:00 -3°C° 1.2 mm 7 m/s 753 mmHg 99%
07:00 -3°C° 1.2 mm 6 m/s 753 mmHg 99%
08:00 -2°C° 0.5 mm 6 m/s 753 mmHg 99%
09:00 -2°C° 0.5 mm 6 m/s 753 mmHg 99%
10:00 -2°C° 0.5 mm 6 m/s 754 mmHg 99%
11:00 -1°C° 0.3 mm 5 m/s 754 mmHg 99%
12:00 -1°C° 0.3 mm 5 m/s 754 mmHg 99%
13:00 0°C° 0.3 mm 5 m/s 754 mmHg 99%
14:00 0°C° 0.5 mm 5 m/s 754 mmHg 99%
15:00 0°C° 0.5 mm 5 m/s 755 mmHg 99%
16:00 +1°C° 0.5 mm 5 m/s 755 mmHg 99%
17:00 +1°C° 0.5 mm 5 m/s 755 mmHg 99%
18:00 +1°C° 0.5 mm 5 m/s 756 mmHg 98%
19:00 +2°C° 0.5 mm 5 m/s 756 mmHg 98%
20:00 +2°C° 0.4 mm 6 m/s 756 mmHg 97%
21:00 +2°C° 0.4 mm 6 m/s 757 mmHg 96%
22:00 +2°C° 0.4 mm 6 m/s 757 mmHg 94%
23:00 +2°C° 0.1 mm 5 m/s 758 mmHg 93%

16 Aprilie, Vineri

Timp Temperatura Precipitaţii Vânt Presiune Umiditate
00:00 +2°C° 0.1 mm 5 m/s 758 mmHg 91%
01:00 +1°C° 0.1 mm 5 m/s 758 mmHg 90%
02:00 +1°C° 0 mm 5 m/s 758 mmHg 89%
03:00 +1°C° 0 mm 5 m/s 759 mmHg 89%
04:00 +1°C° 0 mm 5 m/s 759 mmHg 89%
05:00 +1°C° 0 mm 5 m/s 759 mmHg 87%
06:00 +1°C° 0 mm 5 m/s 760 mmHg 86%
07:00 +1°C° 0 mm 5 m/s 761 mmHg 84%
08:00 +3°C° 0 mm 5 m/s 761 mmHg 78%
09:00 +4°C° 0 mm 6 m/s 761 mmHg 71%
10:00 +7°C° 0 mm 6 m/s 761 mmHg 65%
11:00 +8°C° 0 mm 6 m/s 761 mmHg 61%
12:00 +9°C° 0 mm 6 m/s 761 mmHg 57%
13:00 +10°C° 0 mm 6 m/s 761 mmHg 53%
14:00 +10°C° 0 mm 6 m/s 761 mmHg 52%
15:00 +10°C° 0 mm 6 m/s 761 mmHg 52%
16:00 +10°C° 0 mm 5 m/s 761 mmHg 52%
17:00 +9°C° 0 mm 5 m/s 761 mmHg 57%
18:00 +7°C° 0 mm 4 m/s 762 mmHg 63%
19:00 +5°C° 0 mm 3 m/s 762 mmHg 69%
20:00 +5°C° 0 mm 4 m/s 762 mmHg 69%
21:00 +4°C° 0 mm 4 m/s 763 mmHg 70%
22:00 +3°C° 0 mm 4 m/s 763 mmHg 70%
23:00 +3°C° 0 mm 3 m/s 763 mmHg 72%
Arată mai mult

Formular de consimțământ

Meteoprog și furnizorii noștri de servicii pot stoca și accesa date personale, precum cookies, identificatori de dispozitiv sau alte tehnologii similare pe dispozitivul dumneavoastră și procesa astfel de date pentru a personaliza conținutul și reclamele, dar și pentru a oferi caracteristici de social media și pentru a analiza traficul.

  • Stocarea și/sau accesarea informațiilor pe dispozitivul dumneavoastră

    Cookies, identificatori de dispozitiv sau alte informații pot fi stocate sau accesate pe dispozitiv în scopurile indicate mai sus.

  • Reclame și conținut personalizat, evaluarea reclamelor și a conținutului, informații despre audiențe și dezvoltarea produselor

    Reclamele și conținutul pot fi personalizate pe baza unui profil. Pot fi adăugate date suplimentare pentru a personaliza mai bine reclamele și conținutul. Performanța reclamelor și conținutului poate fi măsurată. Pot fi obținute informații despre utilizatorii care au văzut reclamele și conținutul. Aceste date pot fi utilizate pentru a dezvolta sau îmbunătăți experiența utilizatorilor, sistemele și software-ul.

Dând clic pe ‘Sunt de acord’, permiteți utilizarea cookie-urilor menționate, a identificatorilor de dispozitiv, balizelor web sau altor tehnologii similare. Setările pot fi modificate din browser-ul dispozitivului dumneavoastră.

În anumite scopuri, interesele legitime pot prima asupra consimțământului. Puteți citi mai multe informații în acest sens în Politica privind Confidențialitatea Datelor și Cookie.